Location: Austin
(30.3000°N, 97.7500°W)
Time: 10:42:13
(UTC-05:00)

Lacrosse 4 Rocket - Pass Details

Date: 26 May 2023
Orbit: 537 x 603 km, 68.0° (Epoch: 30 May)

Event Time Altitude Azimuth Distance (km) Brightness Sun altitude
Rises 21:04:40 0° 313° (NW) 2,702 6.8 -8.4°
Reaches altitude 10° 21:07:39 10° 289° (WNW) 1,816 5.5 -9.0°
Maximum altitude 21:09:55 15° 255° (WSW) 1,547 4.2 -9.4°
Drops below altitude 10° 21:12:11 10° 221° (SW) 1,828 4.1 -9.8°
Sets 21:15:14 0° 196° (SSW) 2,733 4.7 -10.4°
